Location: Seattle
(47.6060°N, 122.3310°W)
Time: 18:33:39
(UTC-08:00)

ISS - Visible Passes

Search period start: 22 February 2017 00:00
Search period end: 04 March 2017 00:00
Orbit: 399 x 408 km, 51.6° (Epoch: 23 February)

Date Brightness Start Highest point End Pass type
(mag) Time Alt. Az. Time Alt. Az. Time Alt. Az.
01 Mar -0.6 06:12:07 10° S 06:14:34 19° SE 06:17:01 10° E visible
02 Mar -0.3 05:21:06 10° SSE 05:22:13 11° SE 05:23:20 10° ESE visible
03 Mar -1.9 06:02:31 10° SW 06:05:35 37° SE 06:08:41 10° ENE visible
